Location: Chaves
(41.7330°N, 7.4670°W)
Time: 01:44:46
(UTC+00:00)

ISS - Visible Passes

Search period start: 16 December 2017 00:00
Search period end: 26 December 2017 00:00
Orbit: 402 x 406 km, 51.6° (Epoch: 16 December)

Date Brightness Start Highest point End Pass type
(mag) Time Alt. Az. Time Alt. Az. Time Alt. Az.
16 Dec -3.8 17:38:00 10° NW 17:41:17 88° NNE 17:44:34 10° SE visible
16 Dec -0.4 19:16:34 10° WSW 19:17:17 11° SW 19:18:01 10° SW visible
17 Dec -1.0 18:22:47 10° W 18:25:16 20° SW 18:27:45 10° S visible
18 Dec -2.1 17:30:05 10° WNW 17:33:10 37° SW 17:36:13 10° SSE visible
